Nagaleader — VRDD5 — position and weather

sailwx.info

Track history (hours):
 
Tides and Currents Weather Stations Pressure Air Temp Water Temp Dewpoint Dewpoint Depression Visibility Wind Speed Wind Dir Waves Ship Positions

Nagaleader

Last reported at 2014-Jul-31 06:27 UTC. Time now 2014-Jul-31 11:33 UTC.
Position N 26°05' E 119°47'.

Length 113 m; draft 6.3 m.

Type: Cargo ship. MMSI: 477926700.

Date/timePositionNaut miles runAvg speedWind from/ knotsBaromVisibWave heightAir tempDewpointWater temp
2014-Jul-31 06:27N 26°05' E 119°47'1010.6
2014-Jul-31 05:28N 26°08' E 119°35'9 9.5
2014-Jul-31 04:33N 26°01' E 119°29'1 1.2
2014-Jul-31 03:33N 26°00' E 119°29'0 0.0
2014-Jul-31 02:31N 26°00' E 119°29'0 0.0
2014-Jul-31 01:31N 26°00' E 119°29'0 0.0
2014-Jul-31 00:31N 26°00' E 119°29'0 0.0
2014-Jul-30 23:31N 26°00' E 119°29'0 0.0
2014-Jul-30 22:25N 26°00' E 119°29'0 0.0
2014-Jul-30 21:31N 26°00' E 119°29'0 0.0
2014-Jul-30 20:31N 26°00' E 119°29'0 0.0
2014-Jul-30 19:25N 26°00' E 119°29'0 0.0
2014-Jul-30 18:31N 26°00' E 119°29'0 0.0
2014-Jul-30 17:25N 26°00' E 119°29'0 0.1
2014-Jul-30 16:31N 26°00' E 119°29'0 0.0
2014-Jul-30 15:31N 26°00' E 119°29'0 0.3
2014-Jul-30 14:33N 25°60' E 119°29'3 3.4
2014-Jul-30 13:33N 26°03' E 119°30'17 7.7
2014-Jul-30 11:17N 26°04' E 119°50'4 3.2
2014-Jul-30 10:12N 26°00' E 119°51'3211.9
2014-Jul-30 07:30N 25°29' E 119°54'15212.7
2014-Jul-29 19:30N 22°57' E 120°02'1111.3
2014-Jul-29 18:33N 22°47' E 120°06'1211.9
2014-Jul-29 17:33N 22°36' E 120°12'8 8.3
2014-Jul-29 16:33N 22°33' E 120°20'0 0.1
2014-Jul-29 15:32N 22°33' E 120°20'0 0.0
2014-Jul-29 14:33N 22°33' E 120°20'0 0.0
2014-Jul-29 13:33N 22°33' E 120°20'0 0.0
2014-Jul-29 12:27N 22°33' E 120°20'0 0.0
2014-Jul-29 08:33N 22°33' E 120°20'0 0.0
2014-Jul-29 07:21N 22°33' E 120°20'0 0.0
2014-Jul-29 04:27N 22°33' E 120°20'0 0.0
2014-Jul-29 03:33N 22°33' E 120°20'0 0.0
2014-Jul-29 01:33N 22°33' E 120°20'5 4.7
2014-Jul-29 00:31N 22°32' E 120°15'1212.6
2014-Jul-28 23:33N 22°42' E 120°08'20311.8
2014-Jul-28 06:24N 26°04' E 119°49'1312.7
2014-Jul-28 05:24N 26°08' E 119°35'911.3
2014-Jul-28 04:33N 26°01' E 119°29'0 0.3
2014-Jul-28 03:28N 26°00' E 119°29'0 0.0
2014-Jul-28 02:22N 26°00' E 119°29'0 0.0
2014-Jul-28 01:22N 26°00' E 119°29'0 0.0
2014-Jul-28 00:28N 26°00' E 119°29'0 0.0
2014-Jul-27 23:34N 26°00' E 119°29'0 0.0
2014-Jul-27 22:27N 26°00' E 119°29'0 0.0
2014-Jul-27 21:33N 26°00' E 119°29'0 0.0
2014-Jul-27 20:33N 26°00' E 119°29'0 0.0
2014-Jul-27 19:33N 26°00' E 119°29'0 0.0
2014-Jul-27 18:27N 26°00' E 119°29'0 0.2
2014-Jul-27 17:34N 26°00' E 119°29'7 7.5
2014-Jul-27 16:33N 26°07' E 119°33'20 9.3
2014-Jul-27 14:26N 25°56' E 119°51'18312.8
2014-Jul-27 00:07N 22°53' E 120°04'813.8
2014-Jul-26 23:33N 22°46' E 120°07'1212.3
2014-Jul-26 22:33N 22°34' E 120°12'7 6.9
2014-Jul-26 21:33N 22°33' E 120°20'0 0.0
2014-Jul-26 18:28N 22°33' E 120°20'0 0.0
2014-Jul-26 17:28N 22°33' E 120°20'0 0.0
2014-Jul-26 16:16N 22°33' E 120°20'0 0.0
2014-Jul-26 15:04N 22°33' E 120°20'0 0.0
2014-Jul-26 11:28N 22°33' E 120°20'2 2.4
2014-Jul-26 10:33N 22°32' E 120°18'0 0.0
2014-Jul-26 09:33N 22°32' E 120°18'0 0.1
2014-Jul-26 08:33N 22°32' E 120°18'0 0.0
2014-Jul-26 07:33N 22°32' E 120°18'0 0.0
2014-Jul-26 06:33N 22°32' E 120°18'0 0.1
2014-Jul-26 05:33N 22°32' E 120°18'0 0.0
2014-Jul-26 04:33N 22°32' E 120°18'0 0.0
2014-Jul-26 03:33N 22°32' E 120°18'0 0.0
2014-Jul-26 02:33N 22°32' E 120°18'0 0.1
2014-Jul-26 01:33N 22°32' E 120°18'0 0.1
2014-Jul-26 00:33N 22°32' E 120°18'0 0.1
2014-Jul-25 23:33N 22°32' E 120°18'0 0.1
2014-Jul-25 22:33N 22°32' E 120°18'9 8.7
2014-Jul-25 21:33N 22°38' E 120°10'1211.5
2014-Jul-25 20:33N 22°48' E 120°06'17810.3
2014-Jul-25 03:12N 25°46' E 119°54'2110.7
2014-Jul-25 01:13N 26°05' E 119°44'8 9.2
2014-Jul-25 00:21N 26°08' E 119°36'8 9.5
2014-Jul-24 23:33N 26°02' E 119°30'2 2.3
2014-Jul-24 22:33N 26°00' E 119°29'0 0.0
2014-Jul-24 21:33N 26°00' E 119°29'0 0.0
2014-Jul-24 20:33N 26°00' E 119°29'0 0.0
2014-Jul-24 19:33N 26°00' E 119°29'0 0.0
2014-Jul-24 18:33N 26°00' E 119°29'0 0.0
2014-Jul-24 17:33N 26°00' E 119°29'0 0.0
2014-Jul-24 16:33N 26°00' E 119°29'0 0.0
2014-Jul-24 15:33N 26°00' E 119°29'0 0.0
2014-Jul-24 14:33N 26°00' E 119°29'0 0.0
2014-Jul-24 13:33N 26°00' E 119°29'0 0.0
2014-Jul-24 12:33N 26°00' E 119°29'0 0.0
2014-Jul-24 11:33N 26°00' E 119°29'0 0.0
2014-Jul-24 10:33N 26°00' E 119°29'0 0.0
2014-Jul-24 09:33N 26°00' E 119°29'0 0.0
2014-Jul-24 08:33N 26°00' E 119°29'0 0.3
2014-Jul-24 07:33N 26°01' E 119°29'6 6.3
2014-Jul-24 06:32N 26°06' E 119°32'16 7.2
2014-Jul-24 04:16N 25°60' E 119°49'2 0.7
2014-Jul-24 01:08N 25°58' E 119°48'6411.4
2014-Jul-23 19:29N 24°58' E 119°21'1213.2
2014-Jul-23 18:33N 24°51' E 119°10'1313.2
2014-Jul-23 17:33N 24°43' E 118°58'1513.0
2014-Jul-23 16:25N 24°33' E 118°46'1112.9
2014-Jul-23 15:32N 24°25' E 118°37'1612.8
2014-Jul-23 14:18N 24°15' E 118°24'1012.8
2014-Jul-23 13:32N 24°08' E 118°16'1111.3
2014-Jul-23 12:34N 24°01' E 118°07'3 2.9
2014-Jul-23 11:33N 23°59' E 118°05'1413.9
2014-Jul-23 10:33N 23°50' E 117°53'1413.9
2014-Jul-23 09:33N 23°41' E 117°42'1413.6
2014-Jul-23 08:33N 23°32' E 117°30'7 6.8
2014-Jul-23 07:33N 23°31' E 117°23'0 0.0
2014-Jul-23 06:33N 23°31' E 117°23'0 0.0
2014-Jul-23 05:32N 23°31' E 117°23'0 0.0
2014-Jul-23 04:33N 23°31' E 117°23'0 0.1
2014-Jul-23 03:33N 23°31' E 117°23'0 0.0
2014-Jul-23 02:32N 23°31' E 117°23'0 0.1
2014-Jul-23 01:25N 23°31' E 117°23'0 0.0
2014-Jul-23 00:33N 23°31' E 117°23'0 0.0
2014-Jul-22 23:33N 23°31' E 117°23'0 0.0
2014-Jul-22 22:33N 23°31' E 117°23'0 0.0
2014-Jul-22 21:33N 23°31' E 117°23'0 0.0
2014-Jul-22 20:33N 23°31' E 117°23'0 0.1
2014-Jul-22 19:33N 23°31' E 117°23'0 0.0
2014-Jul-22 18:33N 23°31' E 117°23'0 0.0
2014-Jul-22 17:33N 23°31' E 117°23'0 0.1
2014-Jul-22 16:32N 23°30' E 117°23'0 0.1
2014-Jul-22 14:32N 23°31' E 117°23'0 0.1
2014-Jul-22 13:31N 23°31' E 117°23'0 0.1
2014-Jul-22 12:33N 23°31' E 117°23'0 0.0
2014-Jul-22 11:33N 23°31' E 117°23'0 0.0
2014-Jul-22 10:33N 23°31' E 117°23'0 0.0
2014-Jul-22 09:33N 23°31' E 117°23'0 0.0
2014-Jul-22 08:32N 23°31' E 117°23'6 5.8
2014-Jul-22 07:33N 23°31' E 117°29'1312.5
2014-Jul-22 06:33N 23°30' E 117°43'1612.7
2014-Jul-22 05:19N 23°28' E 117°60'7612.3
2014-Jul-21 23:08N 23°12' E 119°20'2513.3
2014-Jul-21 21:16N 22°56' E 119°41'1013.5
2014-Jul-21 20:31N 22°49' E 119°48'313.5
2014-Jul-21 20:18N 22°47' E 119°51'1013.0
2014-Jul-21 19:33N 22°40' E 119°59'1212.4
2014-Jul-21 18:33N 22°33' E 120°09'10 9.7
2014-Jul-21 17:32N 22°33' E 120°20'0 0.1
2014-Jul-21 16:28N 22°33' E 120°20'0 0.0
2014-Jul-21 15:33N 22°33' E 120°20'0 0.0
2014-Jul-21 14:14N 22°33' E 120°20'0 0.0
2014-Jul-21 13:31N 22°33' E 120°20'0 0.0
2014-Jul-21 12:31N 22°33' E 120°20'0 0.0
2014-Jul-21 11:26N 22°33' E 120°20'0 0.0
2014-Jul-21 10:11N 22°33' E 120°20'0 0.0
2014-Jul-21 08:12N 22°33' E 120°20'3 3.8
2014-Jul-21 07:28N 22°32' E 120°17'1 0.7
2014-Jul-21 06:32N 22°32' E 120°18'  
Track history (hours):
 
Tides and Currents Weather Stations Pressure Air Temp Water Temp Dewpoint Dewpoint Depression Visibility Wind Speed Wind Dir Waves Ship Positions

Nagaleader

Last reported at 2014-Jul-31 06:27 UTC. Time now 2014-Jul-31 11:33 UTC.
Position N 26°05' E 119°47'.

Length 113 m; draft 6.3 m.

Type: Cargo ship. MMSI: 477926700.

Date/timePositionNaut miles runAvg speedWind from/ knotsBaromVisibWave heightAir tempDewpointWater temp
2014-Jul-31 06:27N 26°05' E 119°47'1010.6
2014-Jul-31 05:28N 26°08' E 119°35'9 9.5
2014-Jul-31 04:33N 26°01' E 119°29'1 1.2
2014-Jul-31 03:33N 26°00' E 119°29'0 0.0
2014-Jul-31 02:31N 26°00' E 119°29'0 0.0
2014-Jul-31 01:31N 26°00' E 119°29'0 0.0
2014-Jul-31 00:31N 26°00' E 119°29'0 0.0
2014-Jul-30 23:31N 26°00' E 119°29'0 0.0
2014-Jul-30 22:25N 26°00' E 119°29'0 0.0
2014-Jul-30 21:31N 26°00' E 119°29'0 0.0
2014-Jul-30 20:31N 26°00' E 119°29'0 0.0
2014-Jul-30 19:25N 26°00' E 119°29'0 0.0
2014-Jul-30 18:31N 26°00' E 119°29'0 0.0
2014-Jul-30 17:25N 26°00' E 119°29'0 0.1
2014-Jul-30 16:31N 26°00' E 119°29'0 0.0
2014-Jul-30 15:31N 26°00' E 119°29'0 0.3
2014-Jul-30 14:33N 25°60' E 119°29'3 3.4
2014-Jul-30 13:33N 26°03' E 119°30'17 7.7
2014-Jul-30 11:17N 26°04' E 119°50'4 3.2
2014-Jul-30 10:12N 26°00' E 119°51'3211.9
2014-Jul-30 07:30N 25°29' E 119°54'15212.7
2014-Jul-29 19:30N 22°57' E 120°02'1111.3
2014-Jul-29 18:33N 22°47' E 120°06'1211.9
2014-Jul-29 17:33N 22°36' E 120°12'8 8.3
2014-Jul-29 16:33N 22°33' E 120°20'0 0.1
2014-Jul-29 15:32N 22°33' E 120°20'0 0.0
2014-Jul-29 14:33N 22°33' E 120°20'0 0.0
2014-Jul-29 13:33N 22°33' E 120°20'0 0.0
2014-Jul-29 12:27N 22°33' E 120°20'0 0.0
2014-Jul-29 08:33N 22°33' E 120°20'0 0.0
2014-Jul-29 07:21N 22°33' E 120°20'0 0.0
2014-Jul-29 04:27N 22°33' E 120°20'0 0.0
2014-Jul-29 03:33N 22°33' E 120°20'0 0.0
2014-Jul-29 01:33N 22°33' E 120°20'5 4.7
2014-Jul-29 00:31N 22°32' E 120°15'1212.6
2014-Jul-28 23:33N 22°42' E 120°08'20311.8
2014-Jul-28 06:24N 26°04' E 119°49'1312.7
2014-Jul-28 05:24N 26°08' E 119°35'911.3
2014-Jul-28 04:33N 26°01' E 119°29'0 0.3
2014-Jul-28 03:28N 26°00' E 119°29'0 0.0
2014-Jul-28 02:22N 26°00' E 119°29'0 0.0
2014-Jul-28 01:22N 26°00' E 119°29'0 0.0
2014-Jul-28 00:28N 26°00' E 119°29'0 0.0
2014-Jul-27 23:34N 26°00' E 119°29'0 0.0
2014-Jul-27 22:27N 26°00' E 119°29'0 0.0
2014-Jul-27 21:33N 26°00' E 119°29'0 0.0
2014-Jul-27 20:33N 26°00' E 119°29'0 0.0
2014-Jul-27 19:33N 26°00' E 119°29'0 0.0
2014-Jul-27 18:27N 26°00' E 119°29'0 0.2
2014-Jul-27 17:34N 26°00' E 119°29'7 7.5
2014-Jul-27 16:33N 26°07' E 119°33'20 9.3
2014-Jul-27 14:26N 25°56' E 119°51'18312.8
2014-Jul-27 00:07N 22°53' E 120°04'813.8
2014-Jul-26 23:33N 22°46' E 120°07'1212.3
2014-Jul-26 22:33N 22°34' E 120°12'7 6.9
2014-Jul-26 21:33N 22°33' E 120°20'0 0.0
2014-Jul-26 18:28N 22°33' E 120°20'0 0.0
2014-Jul-26 17:28N 22°33' E 120°20'0 0.0
2014-Jul-26 16:16N 22°33' E 120°20'0 0.0
2014-Jul-26 15:04N 22°33' E 120°20'0 0.0
2014-Jul-26 11:28N 22°33' E 120°20'2 2.4
2014-Jul-26 10:33N 22°32' E 120°18'0 0.0
2014-Jul-26 09:33N 22°32' E 120°18'0 0.1
2014-Jul-26 08:33N 22°32' E 120°18'0 0.0
2014-Jul-26 07:33N 22°32' E 120°18'0 0.0
2014-Jul-26 06:33N 22°32' E 120°18'0 0.1
2014-Jul-26 05:33N 22°32' E 120°18'0 0.0
2014-Jul-26 04:33N 22°32' E 120°18'0 0.0
2014-Jul-26 03:33N 22°32' E 120°18'0 0.0
2014-Jul-26 02:33N 22°32' E 120°18'0 0.1
2014-Jul-26 01:33N 22°32' E 120°18'0 0.1
2014-Jul-26 00:33N 22°32' E 120°18'0 0.1
2014-Jul-25 23:33N 22°32' E 120°18'0 0.1
2014-Jul-25 22:33N 22°32' E 120°18'9 8.7
2014-Jul-25 21:33N 22°38' E 120°10'1211.5
2014-Jul-25 20:33N 22°48' E 120°06'17810.3
2014-Jul-25 03:12N 25°46' E 119°54'2110.7
2014-Jul-25 01:13N 26°05' E 119°44'8 9.2
2014-Jul-25 00:21N 26°08' E 119°36'8 9.5
2014-Jul-24 23:33N 26°02' E 119°30'2 2.3
2014-Jul-24 22:33N 26°00' E 119°29'0 0.0
2014-Jul-24 21:33N 26°00' E 119°29'0 0.0
2014-Jul-24 20:33N 26°00' E 119°29'0 0.0
2014-Jul-24 19:33N 26°00' E 119°29'0 0.0
2014-Jul-24 18:33N 26°00' E 119°29'0 0.0
2014-Jul-24 17:33N 26°00' E 119°29'0 0.0
2014-Jul-24 16:33N 26°00' E 119°29'0 0.0
2014-Jul-24 15:33N 26°00' E 119°29'0 0.0
2014-Jul-24 14:33N 26°00' E 119°29'0 0.0
2014-Jul-24 13:33N 26°00' E 119°29'0 0.0
2014-Jul-24 12:33N 26°00' E 119°29'0 0.0
2014-Jul-24 11:33N 26°00' E 119°29'0 0.0
2014-Jul-24 10:33N 26°00' E 119°29'0 0.0
2014-Jul-24 09:33N 26°00' E 119°29'0 0.0
2014-Jul-24 08:33N 26°00' E 119°29'0 0.3
2014-Jul-24 07:33N 26°01' E 119°29'6 6.3
2014-Jul-24 06:32N 26°06' E 119°32'16 7.2
2014-Jul-24 04:16N 25°60' E 119°49'2 0.7
2014-Jul-24 01:08N 25°58' E 119°48'6411.4
2014-Jul-23 19:29N 24°58' E 119°21'1213.2
2014-Jul-23 18:33N 24°51' E 119°10'1313.2
2014-Jul-23 17:33N 24°43' E 118°58'1513.0
2014-Jul-23 16:25N 24°33' E 118°46'1112.9
2014-Jul-23 15:32N 24°25' E 118°37'1612.8
2014-Jul-23 14:18N 24°15' E 118°24'1012.8
2014-Jul-23 13:32N 24°08' E 118°16'1111.3
2014-Jul-23 12:34N 24°01' E 118°07'3 2.9
2014-Jul-23 11:33N 23°59' E 118°05'1413.9
2014-Jul-23 10:33N 23°50' E 117°53'1413.9
2014-Jul-23 09:33N 23°41' E 117°42'1413.6
2014-Jul-23 08:33N 23°32' E 117°30'7 6.8
2014-Jul-23 07:33N 23°31' E 117°23'0 0.0
2014-Jul-23 06:33N 23°31' E 117°23'0 0.0
2014-Jul-23 05:32N 23°31' E 117°23'0 0.0
2014-Jul-23 04:33N 23°31' E 117°23'0 0.1
2014-Jul-23 03:33N 23°31' E 117°23'0 0.0
2014-Jul-23 02:32N 23°31' E 117°23'0 0.1
2014-Jul-23 01:25N 23°31' E 117°23'0 0.0
2014-Jul-23 00:33N 23°31' E 117°23'0 0.0
2014-Jul-22 23:33N 23°31' E 117°23'0 0.0
2014-Jul-22 22:33N 23°31' E 117°23'0 0.0
2014-Jul-22 21:33N 23°31' E 117°23'0 0.0
2014-Jul-22 20:33N 23°31' E 117°23'0 0.1
2014-Jul-22 19:33N 23°31' E 117°23'0 0.0
2014-Jul-22 18:33N 23°31' E 117°23'0 0.0
2014-Jul-22 17:33N 23°31' E 117°23'0 0.1
2014-Jul-22 16:32N 23°30' E 117°23'0 0.1
2014-Jul-22 14:32N 23°31' E 117°23'0 0.1
2014-Jul-22 13:31N 23°31' E 117°23'0 0.1
2014-Jul-22 12:33N 23°31' E 117°23'0 0.0
2014-Jul-22 11:33N 23°31' E 117°23'0 0.0
2014-Jul-22 10:33N 23°31' E 117°23'0 0.0
2014-Jul-22 09:33N 23°31' E 117°23'0 0.0
2014-Jul-22 08:32N 23°31' E 117°23'6 5.8
2014-Jul-22 07:33N 23°31' E 117°29'1312.5
2014-Jul-22 06:33N 23°30' E 117°43'1612.7
2014-Jul-22 05:19N 23°28' E 117°60'7612.3
2014-Jul-21 23:08N 23°12' E 119°20'2513.3
2014-Jul-21 21:16N 22°56' E 119°41'1013.5
2014-Jul-21 20:31N 22°49' E 119°48'313.5
2014-Jul-21 20:18N 22°47' E 119°51'1013.0
2014-Jul-21 19:33N 22°40' E 119°59'1212.4
2014-Jul-21 18:33N 22°33' E 120°09'10 9.7
2014-Jul-21 17:32N 22°33' E 120°20'0 0.1
2014-Jul-21 16:28N 22°33' E 120°20'0 0.0
2014-Jul-21 15:33N 22°33' E 120°20'0 0.0
2014-Jul-21 14:14N 22°33' E 120°20'0 0.0
2014-Jul-21 13:31N 22°33' E 120°20'0 0.0
2014-Jul-21 12:31N 22°33' E 120°20'0 0.0
2014-Jul-21 11:26N 22°33' E 120°20'0 0.0
2014-Jul-21 10:11N 22°33' E 120°20'0 0.0
2014-Jul-21 08:12N 22°33' E 120°20'3 3.8
2014-Jul-21 07:28N 22°32' E 120°17'1 0.7
2014-Jul-21 06:32N 22°32' E 120°18'  

Dump ship's entire track history